EW9733 Weather Reports


time (UTC)temp
F
wind
direction
speed
knots
gust
knots
rain 1hr
in
rain 24hr
in
rain mn
in
humidity
%
barometer
mb
20260905044512 62 91 0.0 0.0 0.00 0.00 0.00 90 1007.1
20260905043011 62 91 0.0 0.0 0.00 0.00 0.00 90 1007.1
20260905041510 63 91 0.0 0.0 0.00 0.00 0.00 90 1007.1
20260905040009 63 91 0.0 0.0 0.00 0.00 0.00 89 1007.2
20260905034506 63 91 0.0 0.0 0.00 0.00 0.00 89 1007.3
20260905033017 64 91 0.0 0.0 0.00 0.00 0.00 89 1007.2
20260905031506 64 91 0.0 0.0 0.00 0.00 0.00 89 1007.3
20260905030007 64 91 0.0 0.0 0.00 0.00 0.00 88 1007.2
20260905024505 65 91 0.0 0.0 0.00 0.00 0.00 87 1007.2
20260905023023 65 91 0.0 0.0 0.00 0.00 0.00 87 1007.3
20260905021506 66 91 0.0 0.0 0.00 0.00 0.00 87 1007.3
20260905020003 66 91 0.0 0.0 0.00 0.00 0.00 87 1007.5
20260905014503 67 91 0.0 0.0 0.00 0.00 0.00 86 1007.7
20260905013002 67 91 0.0 0.0 0.00 0.00 0.00 86 1007.6
20260905011503 68 91 0.0 0.0 0.00 0.00 0.00 85 1007.8
20260905010001 69 91 0.0 0.0 0.00 0.00 0.00 85 1007.9
20260905004502 69 91 0.0 0.0 0.00 0.00 0.00 84 1007.7
20260905003100 70 91 0.0 0.0 0.00 0.00 0.00 83 1007.6
20260905003001 70 91 0.0 0.0 0.00 0.00 0.00 83 1007.6
20260905001609 70 91 0.0 0.0 0.00 0.00 0.00 83 1007.5
20260905000116 71 91 0.0 0.0 0.00 0.00 0.00 81 1007.4
20260904234559 72 91 0.0 0.9 0.00 0.00 0.00 80 1007.2
20260904233058 73 91 0.0 0.9 0.00 0.00 0.00 78 1007.1
20260904231601 74 91 0.0 0.9 0.00 0.00 0.00 75 1007.0
20260904230057 75 49 0.0 1.7 0.00 0.00 0.00 74 1007.0
20260904224601 77 49 0.0 0.0 0.00 0.00 0.00 71 1006.9
20260904223055 78 49 0.0 0.9 0.00 0.00 0.00 69 1006.9
20260904221551 79 49 0.0 2.6 0.00 0.00 0.00 67 1006.7
20260904220109 80 49 0.0 1.7 0.00 0.00 0.00 63 1006.7
20260904214549 80 49 0.0 2.6 0.00 0.00 0.00 61 1006.5
20260904213049 80 11 0.0 0.9 0.00 0.00 0.00 62 1006.5
20260904211555 80 297 0.0 0.0 0.00 0.00 0.00 60 1006.4
20260904210100 80 298 0.0 0.9 0.00 0.00 0.00 61 1006.5
20260904204550 81 299 0.0 1.7 0.00 0.00 0.00 58 1006.4
20260904203047 82 42 0.0 3.5 0.00 0.00 0.00 55 1006.5
20260904201546 83 219 0.0 2.6 0.00 0.00 0.00 54 1006.6
20260904200046 82 318 0.0 2.6 0.00 0.00 0.00 59 1006.4
20260904194553 81 188 0.0 2.6 0.00 0.00 0.00 60 1006.6
20260904193044 82 43 0.9 4.3 0.00 0.00 0.00 55 1006.5
20260904191548 84 51 2.6 8.7 0.00 0.00 0.00 53 1006.5
20260904190042 82 76 0.0 1.7 0.00 0.00 0.00 59 1006.7
20260904184547 83 111 0.9 7.0 0.00 0.00 0.00 57 1006.6
20260904183042 82 32 0.9 5.2 0.00 0.00 0.00 55 1006.6
20260904181549 83 342 0.9 7.0 0.00 0.00 0.00 54 1006.7
20260904180038 83 32 0.0 2.6 0.00 0.00 0.00 56 1006.9
20260904174559 83 62 0.0 4.3 0.00 0.00 0.00 58 1006.8
20260904173037 83 286 2.6 7.8 0.00 0.00 0.00 57 1006.9
20260904171535 82 248 0.0 4.3 0.00 0.00 0.00 62 1007.1
20260904170031 82 327 0.0 2.6 0.00 0.00 0.00 65 1007.2
20260904164528 81 53 2.6 7.8 0.00 0.00 0.00 64 1007.3
20260904163027 80 249 0.0 5.2 0.00 0.00 0.00 65 1007.4
20260904161525 81 55 0.9 5.2 0.00 0.00 0.00 69 1007.6
20260904160024 80 279 0.9 4.3 0.00 0.00 0.00 65 1007.7
20260904154519 79 30 0.9 6.1 0.00 0.00 0.00 69 1007.8
20260904153023 78 266 0.9 3.5 0.00 0.00 0.00 71 1007.9
20260904151513 78 61 0.0 4.3 0.00 0.00 0.00 75 1007.9
20260904150011 77 65 1.7 4.3 0.00 0.00 0.00 73 1008.1
20260904144505 76 31 0.9 2.6 0.00 0.00 0.00 81 1008.1
20260904143001 74 49 0.0 5.2 0.00 0.00 0.00 87 1008.2
20260904141558 70 281 0.0 3.5 0.00 0.00 0.00 94 1008.3
20260904140054 69 27 0.0 0.9 0.00 0.00 0.00 95 1008.4
20260904134550 68 349 0.0 1.7 0.00 0.00 0.00 95 1008.6
20260904133055 68 66 0.0 2.6 0.00 0.00 0.00 95 1008.6
20260904131545 67 52 0.9 1.7 0.00 0.00 0.00 95 1008.6
20260904130043 67 58 0.0 1.7 0.00 0.00 0.00 95 1008.7
20260904124545 67 55 0.0 1.7 0.00 0.03 0.00 95 1008.7
20260904123103 67 55 0.0 0.9 0.00 0.03 0.00 95 1008.8
20260904121539 67 54 0.9 3.5 0.00 0.03 0.00 95 1008.7
20260904120039 66 111 0.0 0.9 0.00 0.03 0.00 95 1008.7
20260904114537 66 111 0.0 1.7 0.00 0.06 0.00 95 1008.7
20260904113047 66 138 0.0 0.0 0.00 0.06 0.00 94 1008.6
20260904111534 66 138 0.0 0.0 0.00 0.06 0.00 94 1008.5
20260904110038 66 138 0.0 0.0 0.00 0.06 0.00 94 1008.6
20260904104529 66 138 0.0 0.0 0.00 0.08 0.00 94 1008.5
20260904103027 66 138 0.0 0.0 0.00 0.08 0.00 94 1008.3
20260904101527 66 138 0.0 0.0 0.00 0.08 0.00 94 1008.3
20260904100025 66 138 0.0 0.0 0.00 0.08 0.00 94 1008.2
20260904094524 66 138 0.0 0.0 0.00 0.10 0.00 94 1008.3
20260904093025 66 138 0.0 0.0 0.00 0.10 0.00 94 1008.4
20260904091524 66 138 0.0 0.0 0.00 0.10 0.00 94 1008.1
20260904090023 66 138 0.0 0.0 0.00 0.10 0.00 94 1008.1
20260904084523 66 138 0.0 0.0 0.00 0.13 0.00 94 1008.2
20260904083024 66 138 0.0 0.0 0.00 0.13 0.00 94 1008.2
20260904081520 66 138 0.0 0.0 0.00 0.13 0.00 94 1008.3
20260904080018 66 138 0.0 0.0 0.00 0.13 0.00 94 1008.3
20260904074517 66 138 0.0 0.0 0.00 0.13 0.00 94 1008.5
20260904073016 66 138 0.0 1.7 0.00 0.13 0.00 94 1008.7
20260904071515 65 121 0.0 2.6 0.00 0.13 0.00 94 1008.7
20260904070027 65 101 0.0 0.0 0.00 0.13 0.00 94 1008.9
20260904064508 64 101 0.0 0.0 0.00 0.13 0.00 94 1008.8
20260904063012 64 101 0.0 0.0 0.00 0.13 0.00 94 1008.8
20260904061505 64 101 0.0 0.0 0.00 0.13 0.00 93 1009.0
20260904060004 64 101 0.0 0.0 0.00 0.13 0.00 93 1009.2
20260904054502 63 101 0.0 0.0 0.00 0.13 0.00 93 1009.5
20260904053100 63 101 0.0 0.0 0.00 0.13 0.00 93 1009.5
20260904051558 63 101 0.0 0.0 0.00 0.13 0.00 92 1009.7
20260904050056 63 101 0.0 0.0 0.00 0.13 0.00 92 1009.9